Location: Pilipovskiye Korichintsy
(49.1833°N, 27.4667°E)
Time: 00:33:18
(UTC+00:00)

Lacrosse 5 - Pass Details

Date: 31 October 2020
Orbit: 714 x 725 km, 57.0° (Epoch: 30 November)

Event Time Altitude Azimuth Distance (km) Brightness Sun altitude
Rises 16:28:46 0° 298° (WNW) 3,121 6.2 -16.5°
Reaches altitude 10° 16:31:16 10° 306° (NW) 2,199 5.1 -16.9°
Maximum altitude 16:36:04 42° 17° (NNE) 1,024 2.5 -17.7°
Enters shadow 16:37:51 31° 62° (ENE) 1,253 2.6 -18.0°
